VK3VJP-13 Weather Reports


time (UTC)temp
F
wind
direction
speed
knots
gust
knots
rain 1hr
in
rain 24hr
in
rain mn
in
humidity
%
barometer
mb
20260505085304 52 255 0.0 0.9 0.00 0.11 0.10 83 1022.1
20260505084803 52 255 0.0 0.9 0.00 0.11 0.10 83 1022.1
20260505084303 52 252 0.0 0.9 0.00 0.11 0.10 82 1022.0
20260505083803 52 249 0.9 3.5 0.00 0.11 0.10 82 1021.9
20260505083303 52 234 1.7 3.5 0.00 0.11 0.10 82 1021.9
20260505082803 52 273 1.7 2.6 0.00 0.11 0.10 82 1021.9
20260505082304 52 252 0.9 3.5 0.00 0.11 0.10 82 1021.8
20260505081803 52 241 0.9 2.6 0.00 0.11 0.10 82 1021.8
20260505081303 52 257 1.7 3.5 0.00 0.11 0.10 82 1021.7
20260505080803 52 252 0.9 3.5 0.00 0.11 0.10 82 1021.7
20260505080303 52 242 0.9 2.6 0.00 0.11 0.10 82 1021.6
20260505075803 52 250 0.9 1.7 0.00 0.11 0.10 82 1021.6
20260505075304 52 228 0.9 3.5 0.00 0.11 0.10 81 1021.5
20260505074803 52 240 0.9 1.7 0.00 0.11 0.10 81 1021.4
20260505074304 52 234 1.7 5.2 0.00 0.11 0.10 81 1021.4
20260505073804 52 256 0.9 7.0 0.00 0.11 0.10 81 1021.3
20260505073304 52 248 0.0 3.5 0.00 0.11 0.10 81 1021.4
20260505072804 53 257 0.9 2.6 0.00 0.11 0.10 81 1021.2
20260505072305 53 232 1.7 2.6 0.00 0.11 0.10 80 1021.2
20260505071804 53 273 1.7 7.0 0.00 0.11 0.10 79 1021.1
20260505071304 53 268 1.7 5.2 0.00 0.11 0.10 80 1021.1
20260505070804 53 257 1.7 4.3 0.00 0.11 0.10 79 1021.0
20260505070304 53 248 1.7 6.1 0.00 0.11 0.10 79 1021.0
20260505065804 53 232 1.7 2.6 0.00 0.11 0.10 79 1020.9
20260505065304 53 254 0.9 3.5 0.00 0.11 0.10 79 1020.8
20260505064804 53 277 0.9 3.5 0.00 0.11 0.10 79 1020.8
20260505064304 53 253 1.7 2.6 0.00 0.11 0.10 79 1020.7
20260505063804 53 252 1.7 7.0 0.00 0.11 0.10 78 1020.7
20260505063304 53 230 1.7 6.1 0.00 0.11 0.10 78 1020.6
20260505062804 53 247 1.7 5.2 0.00 0.11 0.10 79 1020.6
20260505062304 53 259 2.6 5.2 0.00 0.11 0.10 79 1020.6
20260505061804 53 265 2.6 7.0 0.00 0.11 0.10 78 1020.7
20260505061304 53 271 1.7 5.2 0.00 0.11 0.10 77 1020.6
20260505060804 53 260 2.6 7.8 0.00 0.11 0.10 77 1020.5
20260505060304 53 264 2.6 7.8 0.00 0.11 0.10 76 1020.5
20260505055804 53 227 2.6 7.8 0.00 0.11 0.10 76 1020.5
20260505055304 53 270 1.7 7.0 0.00 0.11 0.10 76 1020.5
20260505054804 53 253 1.7 3.5 0.00 0.11 0.10 77 1020.4
20260505054304 53 289 2.6 5.2 0.00 0.11 0.10 76 1020.4
20260505053804 53 257 2.6 6.1 0.00 0.11 0.10 78 1020.4
20260505053304 53 317 2.6 6.1 0.00 0.11 0.10 78 1020.3
20260505052804 53 272 2.6 6.1 0.00 0.11 0.10 78 1020.3
20260505052304 53 234 2.6 6.1 0.00 0.11 0.10 79 1020.2
20260505051804 53 275 2.6 7.8 0.00 0.11 0.10 79 1020.2
20260505051304 53 263 1.7 7.0 0.00 0.11 0.10 80 1020.1
20260505050804 53 255 1.7 3.5 0.00 0.11 0.10 80 1020.2
20260505050304 53 236 1.7 4.3 0.00 0.11 0.10 80 1020.1
20260505041304 53 244 1.7 2.6 0.00 0.11 0.10 79 1019.7
20260505040804 53 230 1.7 7.0 0.00 0.11 0.10 80 1019.6
20260505040304 53 248 1.7 5.2 0.00 0.11 0.10 78 1019.6
20260505035804 53 231 1.7 5.2 0.00 0.11 0.10 79 1019.7
20260505035304 53 205 1.7 5.2 0.00 0.11 0.10 79 1019.7
20260505034804 53 248 1.7 3.5 0.00 0.11 0.10 80 1019.6
20260505034304 53 199 1.7 6.1 0.00 0.11 0.10 80 1019.6
20260505033804 53 259 0.9 3.5 0.00 0.11 0.10 80 1019.7
20260505033304 53 254 0.9 2.6 0.00 0.11 0.10 81 1019.7
20260505032804 52 303 1.7 3.5 0.00 0.11 0.10 80 1019.7
20260505032304 52 302 1.7 4.3 0.00 0.11 0.10 80 1019.8
20260505031804 52 271 1.7 5.2 0.00 0.11 0.10 80 1019.7
20260505031304 52 252 1.7 5.2 0.00 0.11 0.10 80 1019.7
20260505030804 52 218 3.5 5.2 0.00 0.11 0.10 80 1019.7
20260505030304 52 262 2.6 9.6 0.00 0.11 0.10 79 1019.7
20260505025804 53 252 1.7 6.1 0.00 0.11 0.10 80 1019.7
20260505025305 53 270 2.6 6.1 0.00 0.11 0.10 79 1019.7
20260505024804 52 232 2.6 7.0 0.00 0.11 0.10 81 1019.7
20260505024304 52 168 1.7 6.1 0.00 0.11 0.10 81 1019.7
20260505023804 52 172 1.7 3.5 0.00 0.11 0.10 81 1019.8
20260505023304 52 293 1.7 6.1 0.00 0.11 0.10 80 1019.8
20260505022804 52 175 1.7 7.0 0.00 0.11 0.10 81 1019.9
20260505022304 52 222 1.7 4.3 0.00 0.11 0.10 82 1019.9
20260505021804 52 272 2.6 5.2 0.00 0.11 0.10 79 1019.9
20260505021304 52 300 2.6 7.8 0.00 0.11 0.10 80 1020.0
20260505020804 52 234 2.6 6.1 0.00 0.11 0.10 80 1020.0
20260505020304 52 263 2.6 6.1 0.00 0.11 0.10 80 1020.1
20260505015804 52 175 1.7 6.1 0.00 0.11 0.10 80 1020.1
20260505015304 52 213 1.7 6.1 0.00 0.11 0.10 80 1020.1
20260505014804 52 274 1.7 3.5 0.00 0.11 0.10 80 1020.1
20260505014304 52 334 1.7 7.8 0.00 0.11 0.10 79 1020.1
20260505013804 52 239 0.9 3.5 0.00 0.11 0.10 81 1020.0
20260505013304 51 294 1.7 5.2 0.00 0.11 0.10 81 1020.0
20260505012804 51 177 2.6 7.0 0.00 0.11 0.10 82 1020.1
20260505012304 51 187 2.6 8.7 0.00 0.11 0.10 81 1020.2
20260505011804 51 232 2.6 7.0 0.00 0.11 0.10 81 1020.3
20260505011304 51 216 1.7 8.7 0.00 0.11 0.10 81 1020.0
20260505010804 51 165 0.9 3.5 0.00 0.11 0.10 81 1020.2
20260505010304 51 221 1.7 3.5 0.00 0.11 0.10 80 1020.1
20260505005804 51 252 2.6 7.8 0.00 0.11 0.10 80 1020.1
20260505005304 50 261 2.6 7.8 0.00 0.11 0.10 82 1020.1
20260505004804 50 263 2.6 7.8 0.00 0.11 0.10 82 1020.1
20260505004304 50 219 2.6 7.0 0.00 0.11 0.10 83 1020.1
20260505003804 49 212 2.6 7.0 0.00 0.11 0.10 83 1020.1
20260505003304 49 254 2.6 7.0 0.00 0.11 0.10 84 1020.1
20260505002804 49 259 1.7 4.3 0.00 0.11 0.10 86 1020.1
20260505002304 48 225 2.6 7.8 0.00 0.11 0.10 87 1020.0
20260505001804 47 196 1.7 9.6 0.00 0.11 0.10 86 1020.0
20260505001304 47 276 1.7 5.2 0.00 0.11 0.10 88 1020.0
20260505000804 47 233 2.6 10.4 0.00 0.11 0.10 88 1019.9
20260505000304 47 242 1.7 8.7 0.00 0.11 0.10 89 1019.8
20260504235804 47 259 1.7 6.1 0.00 0.11 0.10 90 1019.8
20260504235305 47 264 1.7 8.7 0.00 0.11 0.10 90 1019.9
20260504234804 47 194 0.9 5.2 0.00 0.11 0.10 90 1019.9
20260504234304 47 259 1.7 9.6 0.00 0.11 0.10 90 1019.8
20260504233804 47 211 1.7 7.0 0.00 0.11 0.10 91 1019.7
20260504233304 47 300 1.7 8.7 0.00 0.11 0.10 92 1019.7
20260504232804 47 214 1.7 7.0 0.00 0.11 0.10 92 1019.6
20260504232304 47 182 1.7 7.0 0.00 0.11 0.10 93 1019.7
20260504231804 47 270 1.7 8.7 0.00 0.11 0.10 93 1019.7
20260504231304 47 253 0.9 7.0 0.00 0.11 0.10 94 1019.7
20260504230804 47 251 1.7 3.5 0.00 0.11 0.10 94 1019.7
20260504230304 47 262 2.6 6.1 0.00 0.11 0.10 94 1019.7
20260504225804 47 169 2.6 6.1 0.00 0.11 0.10 93 1019.6
20260504225304 47 255 3.5 11.3 0.00 0.11 0.10 94 1019.5
20260504224804 47 281 2.6 8.7 0.00 0.11 0.10 94 1019.4
20260504224304 47 228 2.6 7.8 0.00 0.11 0.10 94 1019.5
20260504223804 47 269 2.6 7.0 0.00 0.11 0.10 94 1019.4
20260504223304 47 279 1.7 6.1 0.00 0.11 0.10 95 1019.4
20260504222804 47 205 2.6 9.6 0.00 0.11 0.10 95 1019.2
20260504222305 47 260 1.7 7.0 0.00 0.11 0.10 95 1019.1
20260504221804 47 250 1.7 4.3 0.00 0.11 0.10 94 1019.0
20260504221304 47 209 1.7 7.0 0.00 0.11 0.10 95 1018.9
20260504220804 47 263 2.6 6.1 0.00 0.11 0.10 95 1018.9
20260504220304 47 244 3.5 7.0 0.00 0.11 0.10 94 1018.8
20260504215805 47 202 3.5 9.6 0.00 0.11 0.10 94 1018.7
20260504215305 47 218 2.6 7.8 0.00 0.11 0.10 95 1018.6
20260504214805 47 250 1.7 7.0 0.00 0.11 0.10 95 1018.4
20260504214305 47 194 1.7 5.2 0.00 0.11 0.10 95 1018.3
20260504213805 47 252 2.6 7.8 0.00 0.11 0.10 95 1018.1
20260504213305 47 254 3.5 7.8 0.00 0.11 0.10 95 1018.1
20260504212805 47 259 2.6 7.8 0.00 0.11 0.10 94 1017.9
20260504212305 47 277 2.6 7.0 0.01 0.11 0.10 95 1017.9
20260504211805 48 255 1.7 7.8 0.01 0.11 0.10 95 1017.9
20260504211305 48 257 1.7 6.1 0.02 0.11 0.10 95 1017.8
20260504210805 48 265 2.6 6.1 0.02 0.11 0.10 95 1017.7
20260504210305 48 159 1.7 6.1 0.02 0.11 0.10 95 1017.6
20260504205805 48 250 0.9 5.2 0.02 0.11 0.10 95 1017.6
20260504205305 48 285 1.7 2.6 0.03 0.11 0.10 95 1017.5
20260504204805 48 246 1.7 5.2 0.04 0.11 0.10 95 1017.5
20260504204305 48 277 1.7 6.1 0.04 0.11 0.10 95 1017.5
20260504203805 48 198 2.6 5.2 0.04 0.11 0.10 94 1017.3
20260504203305 48 248 1.7 6.1 0.04 0.11 0.10 95 1017.3
20260504202805 48 204 1.7 5.2 0.04 0.11 0.10 95 1017.2
20260504202305 48 286 1.7 6.1 0.03 0.10 0.09 95 1017.0
20260504201805 48 260 1.7 4.3 0.03 0.10 0.09 95 1017.0
20260504201305 48 251 2.6 5.2 0.03 0.09 0.08 95 1016.9
20260504200805 48 256 1.7 6.1 0.03 0.09 0.08 95 1016.9
20260504200305 48 252 1.7 2.6 0.04 0.09 0.08 95 1016.8
20260504195805 48 226 2.6 7.8 0.04 0.09 0.08 95 1016.7
20260504195305 48 274 2.6 7.8 0.03 0.08 0.07 95 1016.5
20260504194805 48 238 2.6 8.7 0.02 0.07 0.06 95 1016.5
20260504194305 48 287 3.5 11.3 0.02 0.07 0.06 95 1016.5
20260504193805 48 259 2.6 7.8 0.03 0.07 0.06 95 1016.4
20260504193305 48 257 3.5 7.0 0.04 0.07 0.06 95 1016.5
20260504192805 48 201 3.5 7.8 0.04 0.07 0.06 94 1016.5
20260504192305 49 252 2.6 9.6 0.04 0.07 0.06 94 1016.4
20260504191805 49 259 2.6 4.3 0.05 0.07 0.06 94 1016.4
20260504191305 49 209 2.6 6.1 0.04 0.06 0.05 94 1016.2
20260504190805 49 275 2.6 7.0 0.04 0.06 0.05 94 1016.3
20260504190305 49 252 3.5 7.0 0.03 0.05 0.04 94 1016.2
20260504185805 49 240 3.5 9.6 0.03 0.05 0.04 94 1016.1
20260504185305 49 169 2.6 7.0 0.03 0.05 0.04 94 1016.2
20260504184805 49 5 2.6 7.0 0.03 0.05 0.04 94 1016.1
20260504184305 49 254 3.5 9.6 0.03 0.05 0.04 94 1016.0
20260504183805 49 300 2.6 8.7 0.02 0.04 0.03 94 1015.9
20260504183305 49 247 2.6 7.0 0.01 0.03 0.02 94 1015.9
20260504182805 49 256 1.7 6.1 0.01 0.03 0.02 94 1015.8
20260504182305 49 282 2.6 7.0 0.01 0.03 0.02 94 1015.8
20260504181805 49 268 3.5 7.0 0.00 0.02 0.01 93 1015.9
20260504181305 49 267 2.6 7.0 0.00 0.02 0.01 93 1015.7
20260504180805 49 242 3.5 7.0 0.00 0.02 0.01 93 1015.7
20260504180305 49 252 3.5 8.7 0.00 0.02 0.01 93 1015.7
20260504175805 49 302 3.5 13.0 0.00 0.02 0.01 93 1015.7
20260504175305 49 309 2.6 8.7 0.00 0.02 0.01 93 1015.6
20260504174805 49 258 2.6 7.0 0.00 0.02 0.01 93 1015.6
20260504174305 49 286 2.6 9.6 0.00 0.02 0.01 92 1015.6
20260504173805 49 251 2.6 5.2 0.00 0.02 0.01 92 1015.6
20260504173305 49 304 2.6 7.8 0.00 0.02 0.01 92 1015.6
20260504172805 49 242 1.7 7.8 0.00 0.02 0.01 92 1015.6
20260504172305 49 288 2.6 5.2 0.00 0.02 0.01 92 1015.5
20260504171805 49 271 2.6 12.2 0.00 0.02 0.01 92 1015.5
20260504171305 49 288 3.5 5.2 0.00 0.02 0.01 92 1015.6
20260504170805 49 294 4.3 12.2 0.00 0.02 0.01 92 1015.6
20260504170305 49 263 2.6 10.4 0.00 0.02 0.01 92 1015.5
20260504160305 49 321 2.6 8.7 0.00 0.02 0.01 92 1015.2
20260504150805 49 332 2.6 7.8 0.01 0.02 0.01 92 1015.0
20260504150305 49 218 2.6 7.0 0.01 0.02 0.01 92 1015.1
20260504141305 49 333 2.6 8.7 0.00 0.01 0.00 92 1014.7
20260504140805 49 243 2.6 6.1 0.00 0.01 0.00 92 1014.7
20260504140305 49 329 2.6 5.2 0.00 0.01 0.00 92 1014.7
20260504130805 49 292 2.6 7.0 0.00 0.01 0.01 93 1014.5
20260504130305 49 317 2.6 6.1 0.00 0.01 0.01 93 1014.5
20260504120306 50 0 3.5 8.7 0.00 0.01 0.01 91 1014.2
20260504110306 50 249 3.5 7.8 0.00 0.01 0.01 90 1013.2
20260504100306 51 292 3.5 12.2 0.01 0.01 0.01 90 1012.3